[[{"header":{"parameterUnit":"m.s-1","parameterCategory":1,"la1":30.2991,"la2":30.254,"lo1":-89.0895,"lo2":-89.0444,"dy":0.0017,"dx":0.0017,"nx":28,"ny":28,"refTime":"2024-10-18T21:00:00:Z","depth":0,"parameterNumber":2,"parameterNumberName":"U-component_of_WINDS"},"data":[0,0,0,0,0,0,0,0,0,0,0,0,0,0,0,0,0,0,0,0,0,0,0,0,0,0,0,0,0,0,0,0,0,0,0,0,0,0,0,0,0,0,0,0,0,0,0,0,0,0,0,0,0,0,0,0,0,0,-5.3865,-5.3866,0,-5.3941,-5.3942,-5.3943,-5.3756,-5.375,-5.3744,-5.3739,-5.3819,-5.3827,-5.3834,0,0,0,0,0,0,0,0,0,0,0,0,0,-5.3561,-5.3568,-5.3865,-5.3866,-5.3867,-5.3941,-5.3942,-5.3943,-5.3757,-5.375,-5.3743,-5.3736,-5.3817,-5.3826,-5.3835,0,0,0,0,0,0,0,0,0,0,0,0,0,-5.3671,-5.357,-5.3865,-5.3783,-5.3777,-5.3941,-5.3942,-5.3943,-5.3759,-5.375,-5.3741,-5.3733,-5.3814,-5.3825,-5.3836,-5.4084,0,0,-5.3871,-5.3876,0,0,0,0,0,0,0,0,-5.3665,-5.3683,-5.3794,-5.3789,-5.3782,-5.383,-5.3864,-5.3991,-5.3761,-5.3766,-5.3739,-5.3728,-5.383,-5.384,-5.3874,-5.4088,-5.4091,-5.3872,-5.3879,-5.3884,-5.3888,0,0,0,0,0,0,0,-5.3658,-5.3678,-5.3895,-5.3796,-5.3789,-5.3743,-5.3749,-5.3887,-5.3847,-5.3765,-5.3751,-5.3762,-5.3825,-5.3863,-5.3874,-5.4093,-5.3872,-5.3882,-5.3889,-5.3894,-5.4513,-5.4522,0,0,0,0,0,0,-5.366,-5.3673,-5.3893,-5.3897,-5.3701,-5.3756,-5.3762,-5.3824,-5.3845,-5.3839,-5.377,-5.3754,-5.3848,-5.3861,-5.3876,-5.4167,-5.3884,-5.3895,-5.3902,-5.4504,-5.4515,-5.4526,0,0,0,0,0,0,-5.3655,-5.3682,-5.389,-5.3782,-5.3805,-5.3771,-5.3841,-5.383,-5.3867,-5.3849,-5.3841,-5.3816,-5.3841,-5.386,-5.4033,-5.4168,-5.39,-5.3911,-5.4493,-5.4507,-5.4521,-5.4753,0,0,0,0,0,0,-5.3647,-5.3681,-5.3774,-5.3785,-5.3811,-5.4046,-5.3849,-5.3838,-5.3887,-5.3866,-5.389,-5.3885,-5.3836,-5.4017,-5.4045,-5.4179,-5.392,-5.448,-5.4499,-5.4516,-5.4733,-5.4773,-5.4808,0,0,0,0,0,-5.3637,-5.3838,-5.378,-5.3808,-5.3927,-5.4054,-5.4069,-5.4007,-5.3899,-5.3993,-5.3981,-5.3884,-5.4148,-5.4037,-5.4066,-5.4205,-5.4472,-5.4494,-5.4515,-5.4716,-5.4765,-5.4807,0,0,0,0,0,0,-5.3845,-5.3837,-5.3774,-5.3984,-5.4021,-5.4022,-5.4139,-5.4061,-5.4131,-5.4109,-5.4029,-5.4036,-5.4225,-5.4232,-5.4108,-5.4446,-5.4292,-5.432,-5.4435,-5.4481,-5.4518,-5.4513,-5.3929,0,0,0,0,0,-5.3915,-5.4018,-5.4006,-5.4193,-5.4214,-5.4174,-5.4227,-5.4176,-5.4211,-5.4227,-5.4227,-5.4266,-5.4357,-5.4419,-5.4502,-5.4732,-5.4735,-5.4843,-5.488,-5.4911,-5.4937,-5.5059,-5.5106,-5.4597,-5.4596,-5.4596,0,0,-5.4061,-5.407,-5.414,-5.4235,-5.4257,-5.4366,-5.4189,-5.4311,-5.4391,-5.4245,-5.4409,-5.4411,-5.4449,-5.4652,-5.4741,-5.4664,-5.5078,-5.4938,-5.4963,-5.4972,-5.5086,-5.5134,-5.5177,-5.4611,-5.4609,-5.4606,0,0,-5.4384,-5.4401,-5.4558,-5.4584,-5.462,-5.4591,-5.4629,-5.4642,-5.4638,-5.48,-5.4693,-5.4787,-5.4946,-5.4978,-5.5015,-5.5348,-5.5263,-5.5378,-5.5573,-5.5693,-5.5733,-5.5768,-5.5888,-5.5932,-5.5403,-5.5404,-5.5404,0,-5.4562,-5.4721,-5.4649,-5.4779,-5.4824,-5.4695,-5.4854,-5.4883,-5.4945,-5.4979,-5.4891,-5.5087,-5.5104,-5.5312,-5.5393,-5.5428,-5.5469,-5.5375,-5.5733,-5.5768,-5.58,-5.5912,-5.5958,-5.5417,-5.5416,-5.5414,-5.5413,0,-5.4938,-5.505,-5.5172,-5.5234,-5.5292,-5.5437,-5.5387,-5.5455,-5.5399,-5.538,-5.5547,-5.5562,-5.5646,-5.5692,-5.5639,-5.5893,-5.5843,-5.5746,-5.5589,-5.5863,-5.5968,-5.6011,-5.5437,-5.5432,-5.5428,-5.5425,0,0,-5.5395,-5.5414,-5.546,-5.5486,-5.5516,-5.5602,-5.574,-5.582,-5.588,-5.5927,-5.6041,-5.6179,-5.6088,-5.613,-5.6079,-5.6184,-5.6448,-5.6073,-5.6073,-5.6143,-5.6729,-5.6803,-5.6854,-5.639,-5.6398,-5.6405,-5.6726,0,-5.5713,-5.5949,-5.5888,-5.6123,-5.6226,-5.6105,-5.6225,-5.6257,-5.6243,-5.6328,-5.6312,-5.6411,-5.6283,-5.6308,-5.6407,-5.6395,-5.6565,-5.6371,-5.6497,-5.6502,-5.6492,-5.6909,-5.6987,-5.729,-5.6766,-5.6773,-5.6778,0,-5.6117,-5.6178,-5.6423,-5.6435,-5.6476,-5.6585,-5.6654,-5.6737,-5.677,-5.6752,-5.68,-5.6727,-5.6864,-5.6706,-5.6893,-5.6763,-5.6811,-5.6813,-5.6823,-5.6833,-5.6657,-5.6931,-5.7384,-5.743,-5.6842,-5.6837,-5.6832,0,-5.6426,-5.657,-5.6734,-5.6761,-5.6779,-5.6859,-5.687,-5.6894,-5.6947,-5.7007,-5.704,-5.7116,-5.7159,-5.7219,-5.717,-5.7059,-5.7366,-5.7203,-5.7356,-5.7357,-5.7426,-5.7423,-5.7895,-5.7457,-5.7456,-5.7455,-5.7454,0,-5.6788,-5.6943,-5.6873,-5.6976,-5.7145,-5.7074,-5.7244,-5.7242,-5.7264,-5.7364,-5.7264,-5.736,-5.7288,-5.7378,-5.734,-5.7501,-5.7521,-5.7511,-5.7499,-5.752,-5.7522,-5.7551,-5.7529,-5.7467,-5.7465,-5.7462,-5.746,0,-5.7163,-5.7122,-5.7294,-5.7297,-5.7301,-5.7426,-5.7429,-5.7523,-5.7501,-5.7628,-5.7654,-5.7621,-5.7721,-5.7677,-5.7783,-5.7758,-5.7965,-5.7925,-5.7954,-5.7944,-5.8098,-5.8085,-5.8606,-5.8671,-5.8191,-5.8196,-5.82,0,-5.7397,-5.7513,-5.7528,-5.7586,-5.7605,-5.7701,-5.7753,-5.7687,-5.7746,-5.7792,-5.7882,-5.7973,-5.8043,-5.8209,-5.8195,-5.8275,-5.8237,-5.8414,-5.8248,-5.8266,-5.824,-5.8234,-5.8245,-5.8448,-5.8453,-5.8458,-5.8462,0,-5.7817,-5.7791,-5.7869,-5.7942,-5.8007,-5.8061,-5.8106,-5.8161,-5.8096,-5.8168,-5.8268,-5.8323,-5.843,-5.8522,-5.8593,-5.8605,-5.8524,-5.8514,-5.8553,-5.8576,-5.8588,-5.8584,-5.8045,-5.8502,-5.8498,-5.8495,-5.8493,-5.8491,-5.8128,-5.8225,-5.8251,-5.8342,-5.8369,-5.8414,-5.8502,-5.8491,-5.8573,-5.8655,-5.8611,-5.8729,-5.8759,-5.8845,-5.8869,-5.896,-5.889,-5.8948,-5.8962,-5.8978,-5.8998,-5.8573,-5.8973,-5.8972,-5.897,-5.8969,-5.8969,0,-5.8543,-5.8553,-5.8637,-5.8703,-5.8775,-5.8691,-5.8736,-5.8802,-5.8907,-5.8941,-5.9011,-5.9127,-5.9216,-5.9208,-5.929,-5.9365,-5.933,-5.9389,-5.9383,-5.9387,-5.9056,-5.9013,-5.9416,-5.9416,-5.9416,-5.9416,-5.9416,-5.9416,-5.8767,-5.8927,-5.8904,-5.9077,-5.9085,-5.9199,-5.9233,-5.9274,-5.93,-5.9434,-5.9507,-5.95,-5.9518,-5.96,-5.9678,-5.9673,-5.9708,-5.9782,-5.9764,-5.9455,-5.941,-5.9368,-5.9328,-5.979,-5.9791,-6.0087,-6.009,-6.0092]},{"header":{"parameterUnit":"m.s-1","parameterCategory":1,"la1":30.2991,"la2":30.254,"lo1":-89.0895,"lo2":-89.0444,"dy":0.0017,"dx":0.0017,"nx":28,"ny":28,"refTime":"2024-10-18T21:00:00:Z","depth":0,"parameterNumber":3,"parameterNumberName":"V-component_of_WINDS"},"data":[0,0,0,0,0,0,0,0,0,0,0,0,0,0,0,0,0,0,0,0,0,0,0,0,0,0,0,0,0,0,0,0,0,0,0,0,0,0,0,0,0,0,0,0,0,0,0,0,0,0,0,0,0,0,0,0,0,0,-2.3035,-2.3035,0,-2.3028,-2.3027,-2.3027,-2.3004,-2.3003,-2.3002,-2.3002,-2.2993,-2.2994,-2.2994,0,0,0,0,0,0,0,0,0,0,0,0,0,-2.3024,-2.3025,-2.3035,-2.3035,-2.3034,-2.3028,-2.3027,-2.3027,-2.3004,-2.3003,-2.3002,-2.3002,-2.2993,-2.2994,-2.2994,0,0,0,0,0,0,0,0,0,0,0,0,0,-2.3024,-2.3025,-2.3035,-2.3022,-2.3021,-2.3028,-2.3027,-2.3027,-2.3004,-2.3003,-2.3002,-2.3001,-2.2993,-2.2994,-2.2994,-2.3012,0,0,-2.2995,-2.2995,0,0,0,0,0,0,0,0,-2.3024,-2.3025,-2.3024,-2.3023,-2.3021,-2.3016,-2.3021,-2.3022,-2.3004,-2.301,-2.3002,-2.3001,-2.3001,-2.3001,-2.3001,-2.3012,-2.3012,-2.2995,-2.2995,-2.2996,-2.2996,0,0,0,0,0,0,0,-2.3024,-2.3025,-2.3032,-2.3024,-2.3022,-2.3015,-2.3014,-2.3021,-2.301,-2.301,-2.3008,-2.3007,-2.3001,-2.3001,-2.3001,-2.3012,-2.2995,-2.2996,-2.2996,-2.2996,-2.3034,-2.3034,0,0,0,0,0,0,-2.3026,-2.3025,-2.3032,-2.3032,-2.3021,-2.3016,-2.3015,-2.3018,-2.301,-2.3008,-2.3008,-2.3006,-2.3001,-2.3001,-2.3001,-2.302,-2.2996,-2.2996,-2.2996,-2.3033,-2.3034,-2.3035,0,0,0,0,0,0,-2.3026,-2.3027,-2.3032,-2.3028,-2.3028,-2.3017,-2.3021,-2.3019,-2.3019,-2.3009,-2.3007,-2.3011,-2.3,-2.3,-2.3009,-2.3019,-2.2996,-2.2997,-2.3032,-2.3033,-2.3034,-2.3059,0,0,0,0,0,0,-2.3026,-2.3027,-2.3035,-2.3028,-2.3028,-2.3042,-2.3022,-2.3019,-2.302,-2.3018,-2.3011,-2.3009,-2.3,-2.3009,-2.3009,-2.3019,-2.2997,-2.3031,-2.3032,-2.3034,-2.3057,-2.3061,-2.3064,0,0,0,0,0,-2.3026,-2.3043,-2.3036,-2.3037,-2.3038,-2.3043,-2.3043,-2.3032,-2.3021,-2.3028,-2.3021,-2.3009,-2.3018,-2.301,-2.3011,-2.302,-2.303,-2.3032,-2.3034,-2.3056,-2.306,-2.3064,0,0,0,0,0,0,-2.3052,-2.3042,-2.3034,-2.3049,-2.3047,-2.3039,-2.3047,-2.3037,-2.3037,-2.3035,-2.3021,-2.302,-2.303,-2.3026,-2.3017,-2.3036,-2.3022,-2.3024,-2.3038,-2.3043,-2.3046,-2.3046,-2.2997,0,0,0,0,0,-2.3059,-2.3065,-2.3056,-2.307,-2.3069,-2.3058,-2.306,-2.3052,-2.3048,-2.3047,-2.3041,-2.3038,-2.3039,-2.3041,-2.3042,-2.3057,-2.3053,-2.3064,-2.3067,-2.307,-2.3071,-2.3076,-2.308,-2.304,-2.304,-2.304,0,0,-2.3075,-2.307,-2.3075,-2.3075,-2.3072,-2.3077,-2.3058,-2.3064,-2.3067,-2.3048,-2.3056,-2.3051,-2.3046,-2.3057,-2.3062,-2.3054,-2.3081,-2.3072,-2.3074,-2.3074,-2.3078,-2.3082,-2.3085,-2.3041,-2.3041,-2.3041,0,0,-2.3105,-2.3103,-2.3114,-2.3111,-2.3107,-2.3099,-2.3101,-2.3094,-2.309,-2.3097,-2.3083,-2.3085,-2.3089,-2.3085,-2.3084,-2.311,-2.3099,-2.3111,-2.3128,-2.3133,-2.3136,-2.3139,-2.3146,-2.3149,-2.3113,-2.3113,-2.3113,0,-2.3125,-2.3132,-2.312,-2.3127,-2.3126,-2.3109,-2.3119,-2.3116,-2.3113,-2.3112,-2.3104,-2.3106,-2.3102,-2.3111,-2.3117,-2.3117,-2.3118,-2.3112,-2.3137,-2.3139,-2.3142,-2.3149,-2.3152,-2.3114,-2.3114,-2.3114,-2.3114,0,-2.3156,-2.3161,-2.3169,-2.3165,-2.3166,-2.3174,-2.3162,-2.3164,-2.3155,-2.3148,-2.3154,-2.3148,-2.3146,-2.3148,-2.314,-2.3155,-2.315,-2.314,-2.3125,-2.3147,-2.3153,-2.3156,-2.3116,-2.3116,-2.3115,-2.3115,0,0,-2.3203,-2.3191,-2.3195,-2.3191,-2.3184,-2.3187,-2.3193,-2.3192,-2.3192,-2.319,-2.3193,-2.3196,-2.3185,-2.3184,-2.3175,-2.3179,-2.3197,-2.3168,-2.3167,-2.3172,-2.3211,-2.3218,-2.3221,-2.319,-2.319,-2.3191,-2.3211,0,-2.3231,-2.3241,-2.3229,-2.3242,-2.3244,-2.3227,-2.3232,-2.3227,-2.322,-2.3221,-2.3212,-2.3214,-2.3201,-2.3199,-2.3203,-2.3194,-2.3205,-2.3193,-2.3191,-2.3191,-2.3192,-2.3225,-2.3233,-2.3252,-2.3213,-2.3214,-2.3214,0,-2.3264,-2.3262,-2.3275,-2.3264,-2.3265,-2.327,-2.3266,-2.3267,-2.3261,-2.3255,-2.3252,-2.3241,-2.3244,-2.323,-2.3234,-2.3226,-2.3224,-2.322,-2.322,-2.3219,-2.3204,-2.3223,-2.3258,-2.3261,-2.3218,-2.3218,-2.3217,0,-2.3295,-2.3296,-2.3303,-2.3301,-2.329,-2.3293,-2.3288,-2.3281,-2.328,-2.3276,-2.3275,-2.3272,-2.327,-2.3267,-2.3254,-2.3246,-2.3258,-2.3244,-2.3252,-2.3253,-2.3255,-2.3255,-2.329,-2.3257,-2.3257,-2.3257,-2.3257,0,-2.3326,-2.3334,-2.3316,-2.332,-2.3328,-2.3313,-2.3321,-2.3314,-2.3307,-2.3308,-2.3294,-2.3295,-2.3279,-2.3278,-2.3268,-2.3271,-2.3271,-2.3265,-2.3262,-2.3266,-2.3266,-2.3264,-2.3261,-2.3257,-2.3257,-2.3257,-2.3257,0,-2.3362,-2.3351,-2.3357,-2.3345,-2.3342,-2.3347,-2.3337,-2.3339,-2.333,-2.3332,-2.3331,-2.3318,-2.3315,-2.3302,-2.3298,-2.3291,-2.3297,-2.3292,-2.3299,-2.3297,-2.3306,-2.3304,-2.3339,-2.3342,-2.3308,-2.3309,-2.3309,0,-2.3382,-2.3388,-2.3376,-2.3376,-2.3371,-2.3372,-2.337,-2.3355,-2.3354,-2.3345,-2.3348,-2.3345,-2.3342,-2.3339,-2.3328,-2.3323,-2.3317,-2.3329,-2.3316,-2.3319,-2.3315,-2.3314,-2.3314,-2.3332,-2.3332,-2.3333,-2.3333,0,-2.3418,-2.3412,-2.341,-2.3406,-2.3404,-2.34,-2.3396,-2.3396,-2.3379,-2.3379,-2.3376,-2.3373,-2.3367,-2.3364,-2.3357,-2.3351,-2.3338,-2.3337,-2.3338,-2.3342,-2.3345,-2.3341,-2.3305,-2.3336,-2.3336,-2.3336,-2.3336,-2.3335,-2.3446,-2.3449,-2.344,-2.3438,-2.3433,-2.3428,-2.3429,-2.3419,-2.3417,-2.3411,-2.3403,-2.3401,-2.3392,-2.3381,-2.3376,-2.3373,-2.3367,-2.3369,-2.3369,-2.337,-2.3371,-2.3346,-2.3372,-2.3372,-2.3372,-2.3372,-2.3372,0,-2.3479,-2.3473,-2.3471,-2.3464,-2.3462,-2.345,-2.3444,-2.3442,-2.3441,-2.3434,-2.343,-2.3426,-2.3421,-2.3409,-2.3403,-2.3403,-2.3397,-2.3402,-2.3402,-2.34,-2.3378,-2.3377,-2.3407,-2.3407,-2.3407,-2.3407,-2.3407,-2.3407,-2.3497,-2.35,-2.3492,-2.3492,-2.3485,-2.3483,-2.348,-2.3474,-2.3468,-2.3464,-2.346,-2.3452,-2.3442,-2.3435,-2.343,-2.3426,-2.3424,-2.3431,-2.3425,-2.3405,-2.3402,-2.3398,-2.3397,-2.3431,-2.3431,-2.3446,-2.3447,-2.3447]}]]